Weather in Corpus Christi

United States     27°45′01″N   97°27′08″W
temp.,
°C
wind,
m/s
gust,
m/s
humid.,
%
clouds,
%
prec.,
mm/h
press.,
hPa
HPBL,
m
28 may, sat
sat2801:00+24sse48940 0.0 1013217
04:00+24sse499832 0.0 1012365
07:00+24s379715 0.0 1013258
10:00+30s67610 0.1 10131165
13:00+34sse66390 0.1 10121631
16:00+34se76440 0.0 10091517
19:00+29se78650 0.0 1009738
22:00+25sse712880 0.0 1010403
29 may, sun
sun2901:00+25sse612912 0.0 1010502
04:00+24s6139441 0.0 1008574
07:00+24s6129429 0.0 1009634
10:00+30s810560 0.0 10091158
13:00+33sse99470 0.0 10081555
16:00+32sse1010470 0.0 10061379
19:00+29sse912630 0.0 1006960
22:00+26sse814840 0.0 1008705
30 may, mon
mon3001:00+25sse8138719 0.0 1008826
04:00+25sse814869 0.0 1007767
07:00+25sse713860 0.1 1007759
10:00+30sse10126137 0.0 10081436
13:00+33sse1012526 0.1 10081733
16:00+32se10115519 0.1 10071572
19:00+29se911695 0.1 10071022
22:00+26se7128910 0.0 1010748
31 may, tue
tue3101:00+26se712895 0.1 1010762
04:00+26se712883 0.1 1009659
07:00+25se612880 0.1 1010671
10:00+30sse8105817 0.0 10111363
13:00+32se895342 0.1 10111751
16:00+32ese88535 0.1 10101541
19:00+29ese89673 0.1 1010983
22:00+26ese711840 0.0 1012693
1 june, wed
wed101:00+25se6118715 0.1 1012659
04:00+25se510870 0.1 1012513
07:00+25ese48880 0.2 1013412
10:00+30se78586 0.0 10141374
13:00+32ese885320 0.1 10131557
16:00+31ese88524 0.0 10121417
19:00+29ese77622 0.0 10121023
22:00+26se59830 0.0 1012496